Princeton, MN

4:12 PM CDT on July 26, 2017 (GMT -0500)
Princeton Municipal

Weather History for KPNM - October, 2013

Change the Weather History Date:

Friday, October 18, 2013

  Actual Average Record
Temperature  
Mean Temperature 44 °F -  
Max Temperature 53 °F 53 °F 77 °F (2005)
Min Temperature 35 °F 33 °F 26 °F (2015)
Degree Days  
Heating Degree Days 21    
Moisture  
Dew Point 34 °F    
Average Humidity 72    
Maximum Humidity 93    
Minimum Humidity 41    
Precipitation  
Precipitation 0.12 in - - ()
Sea Level Pressure  
Sea Level Pressure 29.90 in    
Wind  
Wind Speed 7 mph (West)    
Max Wind Speed 13 mph    
Max Gust Speed 16 mph    
Visibility 10 miles    
Events Rain    
Averages and records for this station are not official NWS values.
T = Trace of Precipitation, MM = Missing Value Source: NWS Daily Summary

Daily Weather History Graph

Daily Weather History Graph

Search for Another Location

Airport or City:

Trip Planner

Search our weather history database for the weather conditions in past years. The results will help you decide how hot, cold, wet, or windy it might be!

Date:

Astronomy

Oct. 18, 2013 Rise Set
Actual Time 7:35 AM CDT 6:23 PM CDT
Civil Twilight 7:05 AM CDT 6:53 PM CDT
Nautical Twilight 6:30 AM CDT 7:27 PM CDT
Astronomical Twilight 5:56 AM CDT 8:01 PM CDT
Moon 6:12 PM CDT (10/18) 7:11 AM CDT (10/18)
Length of Visible Light 11h 48m
Length of Day
10h 47m
Full, 100% of the Moon is Illuminated
Oct 18
Full
Oct 18
Full
Oct 26
Last Quarter
Nov 3
New
Nov 9
First Quarter

Hourly Weather History & Observations

Time (CDT) Temp. Windchill Dew Point Humidity Pressure Visibility Wind Dir Wind Speed Gust Speed Precip Events Conditions
12:13 AM 42.8 °F 37.0 °F 39.2 °F 87% 29.87 in 10.0 mi NNW 10.4 mph 16.1 mph 0.02 in Rain Rain
12:33 AM 42.8 °F 36.6 °F 39.2 °F 87% 29.88 in 10.0 mi NNW 11.5 mph 16.1 mph 0.06 in Rain Rain
12:53 AM 42.8 °F 37.5 °F 39.2 °F 87% 29.88 in 10.0 mi NW 9.2 mph - 0.07 in Rain Light Rain
1:13 AM 42.8 °F 39.3 °F 39.2 °F 87% 29.88 in 10.0 mi WNW 5.8 mph - 0.01 in Rain Light Rain
1:33 AM 42.8 °F 39.3 °F 39.2 °F 87% 29.88 in 10.0 mi WNW 5.8 mph - 0.02 in Rain Light Rain
1:53 AM 41.0 °F 36.4 °F 39.2 °F 93% 29.88 in 10.0 mi WNW 6.9 mph - 0.03 in Rain Light Rain
2:13 AM 41.0 °F 34.7 °F 39.2 °F 93% 29.88 in 10.0 mi NW 10.4 mph - 0.01 in Rain Rain
2:33 AM 41.0 °F 37.1 °F 39.2 °F 93% 29.89 in 10.0 mi WNW 5.8 mph - 0.01 in Rain Rain
2:53 AM 42.8 °F 39.3 °F 39.2 °F 87% 29.89 in 10.0 mi WNW 5.8 mph - 0.02 in Rain Light Rain
3:13 AM 41.0 °F 37.1 °F 39.2 °F 93% 29.89 in 10.0 mi WNW 5.8 mph - N/A   Light Drizzle
3:33 AM 41.0 °F 37.1 °F 39.2 °F 93% 29.89 in 10.0 mi WNW 5.8 mph - N/A   Drizzle
3:53 AM 41.0 °F 37.1 °F 39.2 °F 93% 29.89 in 10.0 mi WNW 5.8 mph - N/A   Light Drizzle
4:13 AM 41.0 °F 37.1 °F 37.4 °F 87% 29.89 in 10.0 mi WNW 5.8 mph - N/A   Overcast
4:33 AM 39.2 °F 35.0 °F 37.4 °F 93% 29.90 in 10.0 mi WNW 5.8 mph - N/A   Mostly Cloudy
4:53 AM 37.4 °F 33.8 °F 35.6 °F 93% 29.90 in 10.0 mi West 4.6 mph - N/A   Clear
5:13 AM 37.4 °F 33.8 °F 35.6 °F 93% 29.90 in 10.0 mi WNW 4.6 mph - N/A   Clear
5:33 AM 37.4 °F 33.8 °F 35.6 °F 93% 29.91 in 10.0 mi West 4.6 mph - N/A   Clear
5:53 AM 37.4 °F 33.8 °F 35.6 °F 93% 29.91 in 10.0 mi West 4.6 mph - N/A   Scattered Clouds
6:13 AM 35.6 °F 31.7 °F 33.8 °F 93% 29.92 in 10.0 mi West 4.6 mph - N/A   Clear
6:33 AM 35.6 °F 31.7 °F 33.8 °F 93% 29.92 in 10.0 mi West 4.6 mph - N/A   Clear
6:53 AM 35.6 °F 31.7 °F 33.8 °F 93% 29.93 in 10.0 mi West 4.6 mph - N/A   Clear
7:13 AM 35.6 °F 30.7 °F 33.8 °F 93% 29.93 in 10.0 mi West 5.8 mph - N/A   Clear
7:33 AM 35.6 °F 31.7 °F 32.0 °F 87% 29.94 in 10.0 mi West 4.6 mph - N/A   Clear
7:53 AM 35.6 °F 30.7 °F 32.0 °F 87% 29.95 in 10.0 mi West 5.8 mph - N/A   Clear
8:14 AM 35.6 °F 30.7 °F 33.8 °F 93% 29.95 in 10.0 mi West 5.8 mph - N/A   Clear
8:33 AM 35.6 °F 31.7 °F 33.8 °F 93% 29.96 in 10.0 mi West 4.6 mph - N/A   Clear
8:54 AM 37.4 °F 32.8 °F 35.6 °F 93% 29.96 in 10.0 mi WNW 5.8 mph - N/A   Clear
9:13 AM 39.2 °F 35.0 °F 35.6 °F 87% 29.96 in 10.0 mi WNW 5.8 mph - N/A   Clear
9:33 AM 41.0 °F 38.0 °F 35.6 °F 81% 29.97 in 10.0 mi West 4.6 mph - N/A   Clear
9:54 AM 42.8 °F 40.1 °F 35.6 °F 76% 29.97 in 10.0 mi WNW 4.6 mph - N/A   Clear
10:13 AM 44.6 °F 41.4 °F 35.6 °F 71% 29.97 in 10.0 mi West 5.8 mph - N/A   Clear
10:33 AM 44.6 °F 42.2 °F 37.4 °F 76% 29.96 in 10.0 mi West 4.6 mph - N/A   Clear
10:54 AM 46.4 °F 43.5 °F 35.6 °F 66% 29.96 in 10.0 mi West 5.8 mph - N/A   Clear
11:13 AM 48.2 °F - 35.6 °F 62% 29.96 in 10.0 mi WSW 5.8 mph - N/A   Clear
11:33 AM 48.2 °F - 33.8 °F 58% 29.96 in 10.0 mi WNW 6.9 mph - N/A   Clear
11:54 AM 50.0 °F - 32.0 °F 50% 29.96 in 10.0 mi WNW 6.9 mph - N/A   Clear
12:13 PM 50.0 °F - 30.2 °F 47% 29.96 in 10.0 mi West 11.5 mph - N/A   Clear
12:33 PM 50.0 °F - 30.2 °F 47% 29.95 in 10.0 mi West 10.4 mph - N/A   Clear
12:54 PM 51.8 °F - 32.0 °F 47% 29.94 in 10.0 mi West 10.4 mph - N/A   Clear
1:13 PM 51.8 °F - 30.2 °F 44% 29.94 in 10.0 mi West 6.9 mph - N/A   Clear
1:33 PM 53.6 °F - 30.2 °F 41% 29.93 in 10.0 mi WNW 8.1 mph - N/A   Scattered Clouds
1:54 PM 53.6 °F - 32.0 °F 44% 29.92 in 10.0 mi WSW 12.7 mph - N/A   Mostly Cloudy
2:13 PM 51.8 °F - 30.2 °F 44% 29.91 in 10.0 mi West 11.5 mph 16.1 mph N/A   Mostly Cloudy
2:33 PM 53.6 °F - 30.2 °F 41% 29.90 in 10.0 mi WSW 9.2 mph - N/A   Scattered Clouds
2:53 PM 51.8 °F - 30.2 °F 44% 29.89 in 10.0 mi WSW 8.1 mph - N/A   Mostly Cloudy
3:13 PM 50.0 °F - 30.2 °F 47% 29.89 in 10.0 mi WSW 8.1 mph - N/A   Mostly Cloudy
3:33 PM 48.2 °F - 30.2 °F 50% 29.89 in 10.0 mi West 4.6 mph - N/A   Scattered Clouds
3:53 PM 51.8 °F - 30.2 °F 44% 29.89 in 10.0 mi WSW 5.8 mph - N/A   Scattered Clouds
4:13 PM 50.0 °F - 30.2 °F 47% 29.89 in 10.0 mi WSW 3.5 mph - N/A   Clear
4:33 PM 50.0 °F - 32.0 °F 50% 29.89 in 10.0 mi WSW 3.5 mph - N/A   Scattered Clouds
4:53 PM 51.8 °F - 32.0 °F 47% 29.89 in 10.0 mi WSW 5.8 mph - N/A   Scattered Clouds
5:13 PM 48.2 °F - 30.2 °F 50% 29.89 in 10.0 mi WSW 4.6 mph - N/A   Mostly Cloudy
5:33 PM 48.2 °F - 30.2 °F 50% 29.88 in 10.0 mi WSW 5.8 mph - N/A   Mostly Cloudy
5:53 PM 48.2 °F - 30.2 °F 50% 29.88 in 10.0 mi Calm Calm - N/A   Overcast
6:13 PM 46.4 °F 45.2 °F 30.2 °F 53% 29.88 in 10.0 mi SW 3.5 mph - N/A   Overcast
6:33 PM 46.4 °F 45.2 °F 32.0 °F 57% 29.88 in 10.0 mi SW 3.5 mph - N/A   Scattered Clouds
6:54 PM 46.4 °F 45.2 °F 32.0 °F 57% 29.88 in 10.0 mi SW 3.5 mph - N/A   Overcast
7:13 PM 46.4 °F 41.5 °F 30.2 °F 53% 29.88 in 10.0 mi West 10.4 mph - N/A   Overcast
7:34 PM 46.4 °F 43.5 °F 33.8 °F 62% 29.89 in 10.0 mi NW 5.8 mph - N/A   Drizzle
7:53 PM 44.6 °F 42.2 °F 33.8 °F 66% 29.89 in 10.0 mi WNW 4.6 mph - N/A   Overcast
8:13 PM 44.6 °F - 33.8 °F 66% 29.88 in 10.0 mi Calm Calm - N/A   Overcast
8:34 PM 44.6 °F - 33.8 °F 66% 29.87 in 10.0 mi Calm Calm - N/A   Overcast
8:53 PM 42.8 °F - 35.6 °F 76% 29.86 in 10.0 mi Calm Calm - N/A   Overcast
9:13 PM 42.8 °F - 35.6 °F 76% 29.85 in 10.0 mi Calm Calm - N/A   Overcast
9:33 PM 42.8 °F - 35.6 °F 76% 29.85 in 10.0 mi Calm Calm - N/A   Overcast
9:53 PM 42.8 °F - 35.6 °F 76% 29.85 in 10.0 mi Calm Calm - N/A   Overcast
10:13 PM 42.8 °F - 35.6 °F 76% 29.85 in 10.0 mi Calm Calm - N/A   Overcast
10:33 PM 42.8 °F - 35.6 °F 76% 29.85 in 10.0 mi Calm Calm - N/A   Overcast
10:53 PM 42.8 °F 40.1 °F 35.6 °F 76% 29.84 in 10.0 mi SSW 4.6 mph - N/A   Overcast
11:13 PM 42.8 °F 41.1 °F 35.6 °F 76% 29.83 in 10.0 mi SSW 3.5 mph - N/A   Overcast
11:33 PM 42.8 °F 39.3 °F 35.6 °F 76% 29.83 in 10.0 mi SSW 5.8 mph - N/A   Overcast
11:53 PM 42.8 °F 38.6 °F 35.6 °F 76% 29.82 in 10.0 mi SSW 6.9 mph - N/A   Overcast